Regional Weather Roundup
Issued by NWS

Home | Current Version | Previous Version | Text Only | Print | Product List | Glossary Off
Versions: 1 2 3 4 5 6 7 8 9 10 11 12 13 14 15 16 17 18 19 20 21 22 23 24 25 26 27 28 29 30 31 32 33 34 35 36 37 38 39 40 41 42 43 44 45 46 47 48 49 50

000
ASUS43 KMKX 102211
RWRWI

WISCONSIN REGIONAL WEATHER ROUNDUP
NATIONAL WEATHER SERVICE MILWAUKEE/SULLIVAN WI
400 PM CST SAT DEC 10 2016

NOTE: "FAIR" INDICATES FEW OR NO CLOUDS BELOW 12,000 FEET WITH NO
SIGNIFICANT WEATHER AND/OR OBSTRUCTIONS TO VISIBILITY.

WIZ001-002-006>008-014>016-023>028-102300-
NORTHWEST WISCONSIN

CITY           SKY/WX    TMP DP  RH WIND       PRES   REMARKS
SUPERIOR ARPT  CLEAR      8   0  69 NW3       30.37F
ASHLAND        CLEAR      9   0  67 CALM      30.36F
HAYWARD        CLOUDY    11   0  61 S3        30.30F
SIREN          MOCLDY    11   1  62 S3        30.32F
CUMBERLAND     PTCLDY     9   1  72 S3        30.30F
RICE LAKE      PTCLDY    11   2  67 S5        30.34S WCI   3
CHETEK         PTCLDY    11   2  66 S5        30.33F WCI   3
LADYSMITH      CLOUDY    12   3  67 CALM      30.32F
EAU CLAIRE     CLOUDY    13   4  67 SE6       30.34F WCI   4
MENOMONIE      CLOUDY    13   4  66 S5        30.35F WCI   6
NEW RICHMOND   CLOUDY    12   2  63 S5        30.32F WCI   4
OSCEOLA        CLOUDY    13   3  65 S3        30.36F
$$

WIZ003>005-009-010-017-018-102300-
NORTH CENTRAL WISCONSIN

CITY           SKY/WX    TMP DP  RH WIND       PRES   REMARKS
MANITOWISH WTR PTCLDY     4  -3  73 CALM      30.27F
ARBOR VITAE    CLEAR     11   1  63 CALM      30.27F
WOODRUFF       CLEAR     11   1  63 CALM      30.27F
RHINELANDER    PTCLDY    11  -1  58 CALM      30.27F
EAGLE RIVER    CLEAR      7  -3  64 CALM      30.27F
LAND O LAKES   CLEAR      7   0  73 CALM      30.28F
PHILLIPS       CLOUDY     9   0  65 CALM      30.28F
TOMAHAWK       CLOUDY    10   0  64 CALM      30.29F
MEDFORD        CLOUDY     9   1  71 S3        30.29S
MERRILL        PTCLDY    10   1  66 CALM      30.32F
$$

WIZ029-030-035-036-043>047-102300-
CENTRAL WISCONSIN

CITY           SKY/WX    TMP DP  RH WIND       PRES   REMARKS
WAUSAU         PTCLDY    10   1  67 W3        30.31F
MOSINEE        MOCLDY    12   3  67 CALM      30.33F
MARSHFIELD     CLOUDY    13   1  59 CALM      30.31S
STEVENS POINT  CLOUDY    13   1  58 W3        30.34S
WAUPACA        CLOUDY    19   7  60 CALM      30.37S
WAUTOMA        CLOUDY    16   7  67 SW3       30.37S
WISC RAPIDS    CLOUDY    14   6  70 SW7       30.36S WCI   4
CAMP DOUGLAS   FLURRIES  16   7  68 S6        30.36S WCI   7
$$

WIZ011>013-019>022-031-037>040-048>050-102300-
NORTHEAST WISCONSIN

CITY           SKY/WX    TMP DP  RH WIND       PRES   REMARKS
ANTIGO         PTCLDY     8   0  71 CALM      30.29F
SHAWANO        MOCLDY    17   4  57 CALM      30.36F
OCONTO         PTCLDY    15   2  57 W6        30.38R WCI   6
STURGEON BAY   CLEAR     16   5  62 W6        30.37R WCI   7
GREEN BAY      CLOUDY    20   6  55 W6        30.36F WCI  12
MANITOWOC      MOCLDY    19   7  59 W7        30.38S WCI  10
APPLETON       MOCLDY    18   3  53 VRB5      30.33S WCI  11
CLINTONVILLE   CLOUDY    18   5  57 W3        30.36S
OSHKOSH        PTCLDY    17   5  59 VRB3      30.36S
$$

WIZ032>034-041-042-053>061-102300-
SOUTHWEST WISCONSIN

CITY           SKY/WX    TMP DP  RH WIND       PRES   REMARKS
LA CROSSE      LGT SNOW  16  11  80 SW3       30.38F
SPARTA         LGT SNOW  15  11  84 S3        30.38S
VIROQUA        CLOUDY    14  11  88 CALM      30.32F VSB 1
BOSCOBEL       LGT SNOW  20  15  81 CALM      30.39F
PRAIRIE DU CHI LGT SNOW  19  15  83 E5        30.37F WCI  12
PLATTEVILLE    CLOUDY    20  19  96 S3        30.35F VSB 1
$$

WIZ056-057-062-063-064-067-068-102300-
SOUTH CENTRAL WISCONSIN

CITY           SKY/WX    TMP DP  RH WIND       PRES   REMARKS
REEDSBURG      LGT SNOW  17  12  83 S3        30.37S
BARABOO/DELLS  LGT SNOW  17  11  74 SW6       30.36S WCI   9
LONE ROCK      LGT SNOW  19  14  81 CALM      30.39S VSB 1
MINERAL POINT  LGT SNOW  21  19  93 CALM      30.34F
MADISON        LGT SNOW  19  14  81 S7        30.38R WCI  10
MIDDLETON      CLOUDY    20  16  83 SW5       30.37S WCI  14
WATERTOWN      CLOUDY    20  12  72 SW6       30.37S WCI  12
MONROE         LGT SNOW  21  19  93 SE5       30.35F VSB 1   WCI  15
JANESVILLE     LGT SNOW  21  18  86 SW9       30.39R WCI  11
$$

WIZ051-052-058>065-066-070>072-102300-
SOUTHEAST WISCONSIN

CITY           SKY/WX    TMP DP  RH WIND       PRES   REMARKS
MILWAUKEE      CLOUDY    23  10  57 W9        30.39S WCI  13
WAUKESHA       CLOUDY    19  10  68 SW5       30.38S WCI  13
MILWAUKEE/TIMM MOCLDY    21   9  58 W7        30.39R WCI  13
RACINE         CLOUDY    23  12  62 SW5       30.40F WCI  17
BURLINGTON     CLOUDY    26  19  74 SW7       30.39R WCI  18
KENOSHA        CLOUDY    23  13  65 SW6       30.39S WCI  16
FOND DU LAC    CLOUDY    17   5  59 CALM      30.37S
SHEBOYGAN      PTCLDY    18   7  62 W6        30.37S WCI  10
WEST BEND      MOCLDY    19   9  63 W3        30.37S
JUNEAU         CLOUDY    17   8  66 SW5       30.38S WCI  10
$$

LSZ147-162-102300-
LAKE SUPERIOR

STATION/POSITION TIME  TEMP    WIND        PRES    WAVE
                       AIR SEA DIR/SP/G            HT/PER
                 (UTC) (F)     (DEG/KT/KT) (MB)    (FT/S)
DEVILS ISLAND    2200   11     190/  9/ 12 1029.5F
PORT WING        2130   11      CALM  /  5 1028.4S
SAXON HARBOR     2130   13     250/  2/  2 1028.4S
$$

LMZ867-665-643>646-102300-
LAKE MICHIGAN

STATION/POSITION TIME  TEMP    WIND        PRES    WAVE
                       AIR SEA DIR/SP/G            HT/PER
                 (UTC) (F)     (DEG/KT/KT) (MB)    (FT/S)
CHAMBERS ISLAND  2140   19     220/  3/  6 1027.4R
NORTHPORT PIER   2200   19     180/  2/  7 1027.8
SISTER BAY       2150   20     290/  9/ 12   N/A
ALGOMA LAKESHORE 2136          270/  5/  6   N/A
KEWAUNEE LAKESHO 2148   19     290/  5/  7 1027.9R
SHEBOYGAN LAKESH 2200   19     260/  6/  7 1029.7S
PORT WASHINGTON  2140   21     260/  4/  6 1030.1S
KENOSHA   LAKESH 2200   23     230/  4/  7 1029.5
$$

TC  - TEMPERATURE IN CELSIUS
VSB - VISIBILITY IN STATUTE MILES
WCI - WIND CHILL INDEX
HX  - HEAT INDEX




USA.gov is the U.S. government's official web portal to all federal, state and local government web resources and services.